Regional Weather Roundup
Issued by NWS

Home | Current Version | Previous Version | Graphics & Text | Print | Product List | Glossary On
Versions: 1 2 3 4 5 6 7 8 9 10 11 12 13 14 15 16 17 18 19 20 21 22 23 24 25 26 27 28 29 30 31 32 33 34 35 36 37 38 39 40 41 42 43 44 45 46 47 48 49 50
000
ASUS43 KDMX 210407
RWRIA

WEATHER ROUNDUP FOR IOWA
NATIONAL WEATHER SERVICE DES MOINES IA
1000 PM CST SAT DEC 20 2014

NOTE: "FAIR" INDICATES FEW OR NO CLOUDS BELOW 12,000 FEET WITH NO
SIGNIFICANT WEATHER AND/OR OBSTRUCTIONS TO VISIBILITY.

* - THESE STATIONS ARE NOT NWS STATIONS...THUS NOT UNDER NWS
QUALITY CONTROL.  THEY ALSO DO NOT REPORT WEATHER SUCH
AS PRECIPITATION OR FOG.

IAZ001>003-012>014-020>022-031>034-043>046-210500-
   NORTHWEST IOWA

CITY           SKY/WX    TMP DP  RH WIND       PRES   REMARKS
CARROLL *      CLOUDY    32  32 100 S10       30.05F FOG     WCI  24
CHEROKEE *     CLOUDY    32  32 100 S10       30.02F FOG     WCI  24
DENISON *      CLOUDY    32  32 100 S8        30.02F FOG     WCI  25
LE MARS *      CLOUDY    32  32 100 S12       30.01F FOG     WCI  23
ORANGE CITY *  CLOUDY    32  30  93 S14       30.00S FOG     WCI  22
SHELDON *      CLOUDY    30  32 100 S13G21    29.98F FOG     WCI  20
SIOUX CITY     CLOUDY    33  31  92 S10       30.03S FOG     WCI  25
SPENCER        CLOUDY    32  29  88 S10       30.02F WCI  24
STORM LAKE *   CLOUDY    32  32 100 S15       30.02F FOG     WCI  22
$$

IAZ055>058-069>071-079>083-090>094-210500-
   SOUTHWEST IOWA

CITY           SKY/WX    TMP DP  RH WIND       PRES   REMARKS
ATLANTIC *     CLOUDY    34  34 100 S6        30.05F FOG     WCI  29
AUDUBON *      HAZE      34  28  80 S6        30.05F VSB 1   WCI  29
CLARINDA *     CLOUDY    36  36 100 SE5       30.08F FOG     WCI  32
COUNCIL BLFS * FOG       34  34 100 SE9       30.02F VSB 1/4 WCI  26
CRESTON *      FOG       36  36 100 SE10      30.08S VSB 1/4 WCI  28
HARLAN  *      CLOUDY    32  32 100 S6        30.08F FOG     WCI  26
LAMONI         CLOUDY    36  36 100 S9        30.10S FOG     WCI  29
RED OAK *      CLOUDY    34  34 100 SE6       30.06F FOG     WCI  29
SHENANDOAH *   CLOUDY    36  36 100 CALM      30.06F FOG
$$

IAZ047>049-059>061-072>074-084-210500-
   CENTRAL IOWA

CITY           SKY/WX    TMP DP  RH WIND       PRES   REMARKS
AMES           CLOUDY    33  32  96 SE7       30.09F FOG     WCI  27
ANKENY *       CLOUDY    36  36 100 SE7       30.10F FOG     WCI  30
CHARITON *     CLOUDY    36  36 100 S9        30.11S FOG     WCI  29
DES MOINES     CLOUDY    36  34  92 SE10      30.10F FOG     WCI  28
GRINNELL*      FOG       34  34 100 SE6       30.12F VSB 1/4 WCI  29
KNOXVILLE *    CLOUDY    36  34  93 SE7       30.10F FOG     WCI  30
MARSHALLTOWN   FOG       33  33 100 SE8       30.11F VSB 1/4 WCI  26
PELLA *        CLOUDY    36  36 100 SE6       30.14S FOG     WCI  31
PERRY *        CLOUDY    34  34 100 SE8       30.07F FOG     WCI  27
$$

IAZ004>006-015-016-023>025-035-036-210500-
   NORTH CENTRAL IOWA

CITY           SKY/WX    TMP DP  RH WIND       PRES   REMARKS
ALGONA *       CLOUDY    32  25  74 S12       30.06S HAZE    WCI  23
CLARION *      CLOUDY    32  32 100 SE10      30.07F FOG     WCI  24
ESTHERVILLE    CLOUDY    31  29  92 S16       30.02F WCI  20
FORT DODGE *   CLOUDY    34  28  80 S9G16     30.07S WCI  26
MASON CITY     FOG       31  31 100 S14       30.09F VSB 1/4 WCI  21
FOREST CITY *  FOG       32  32 100 SE10      30.07F VSB 1/2 WCI  24
IOWA FALLS *   FOG       32  32 100 SE9       30.10F VSB 1/4 WCI  24
$$

IAZ007>011-017>019-026>030-037>042-050>054-066-210500-
   NORTHEAST IOWA

CITY           SKY/WX    TMP DP  RH WIND       PRES   REMARKS
CEDAR RAPIDS   FOG       32  32 100 SE8       30.15S VSB 1/2 WCI  25
CHARLES CITY * FOG       32  32 100 SE10      30.11F VSB 3/4 WCI  24
CLINTON *      CLOUDY    32  27  80 S7        30.23S WCI  26
DECORAH *      CLOUDY    30  30 100 SE8       30.13S FOG     WCI  23
DUBUQUE        CLOUDY    30  29  96 S8        30.17F FOG     WCI  22
MONTICELLO *   CLOUDY    32  32 100 SE8       30.17F FOG     WCI  25
OELWEIN *      FOG       32  32 100 SE12      30.14F VSB 3/4 WCI  23
WATERLOO       FOG       32  32 100 S8        30.13F VSB 1/2 WCI  25
$$

IAZ064-065-067-068-078-210500-
   EAST CENTRAL IOWA

CITY           SKY/WX    TMP DP  RH WIND       PRES   REMARKS
DAVENPORT      CLOUDY    33  29  85 S8        30.20S FOG     WCI  26
IOWA CITY      CLOUDY    33  33 100 SE7       30.18F FOG     WCI  27
MT. PLEASANT * CLOUDY    34  34 100 S8        30.18F FOG     WCI  27
MUSCATINE *    CLOUDY    36  32  87 S6        30.20S FOG     WCI  31
QUAD CITIES    CLOUDY    33  29  85 S8        30.20S FOG     WCI  26
$$

IAZ062-063-075>077-085>089-095>099-210500-
   SOUTHEAST IOWA

CITY           SKY/WX    TMP DP  RH WIND       PRES   REMARKS
BURLINGTON     CLOUDY    36  34  92 S6        30.19S FOG     WCI  31
FAIRFIELD *    CLOUDY    36  34  93 SE7       30.16F FOG     WCI  30
FORT MADISON * CLOUDY    36  36 100 S5        30.20S FOG     WCI  32
KEOKUK *       CLOUDY    37  36  93 CALM      30.19S FOG
OSKALOOSA *    FOG       34  34 100 SE7       30.15S VSB 1/2 WCI  28
CENTERVILLE *  CLOUDY    36  36 100 S9        30.14S WCI  29
OTTUMWA        CLOUDY    35  34  96 SE7       30.14F FOG     WCI  29
WASHINGTON *   FOG       34  34 100 SE8       30.17F VSB 1   WCI  27
$$

ABBREVIATIONS USED IN REMARKS
   TC - TEMPERATURES IN CELSIUS
  WCI - WIND CHILL INDEX
   HX - HEAT INDEX
  VSB - VISIBILITY
$$



USA.gov is the U.S. government's official web portal to all federal, state and local government web resources and services.